Location: D�derode
(51.8092°N, 10.1065°E)
Time: 06:03:45
(UTC+00:00)

Cosmos 1371 Rocket - Pass Details

Date: 01 December 2020
Orbit: 753 x 790 km, 74.0° (Epoch: 23 January)

Event Time Altitude Azimuth Distance (km) Brightness Sun altitude
Rises 17:55:40 0° 335° (NNW) 3,221 7.5 -24.2°
Reaches altitude 10° 17:58:03 10° 336° (NNW) 2,293 6.7 -24.6°
Maximum altitude 18:03:15 83° 64° (ENE) 771 3.8 -25.4°
Enters shadow 18:03:37 76° 125° (SE) 786 3.8 -25.4°
